Weather History for Eastman, GA

Change the Weather History Date:

Saturday, August 24, 2013

  Actual Average Record
Temperature  
Mean Temperature 80 °F -  
Max Temperature 88 °F 90 °F 88 °F (2013)
Min Temperature 73 °F 68 °F 73 °F (2013)
Cooling Degree Days 16    
Growing Degree Days 30 (Base 50)    
Moisture  
Dew Point 75 °F    
Average Humidity 88    
Maximum Humidity 100    
Minimum Humidity 68    
Precipitation  
Precipitation 0.00 in - - ()
Sea Level Pressure  
Sea Level Pressure 30.16 in    
Wind  
Wind Speed 3 mph (ENE)    
Max Wind Speed 14 mph    
Max Gust Speed 20 mph    
Visibility 10 miles    
Events      
Averages and records for this station are not official NWS values.
T = Trace of Precipitation, MM = Missing Value Source: NWS Daily Summary

Daily Weather History Graph

Daily Weather History Graph

Search for Another Location

Airport:

Trip Planner

Search our weather history database for the weather conditions in past years. The results will help you decide how hot, cold, wet, or windy it might be!

Date:

Astronomy

Aug. 24, 2013 Rise Set
Actual Time 7:02 AM EDT 8:06 PM EDT
Civil Twilight 6:37 AM EDT 8:31 PM EDT
Nautical Twilight 6:07 AM EDT 9:01 PM EDT
Astronomical Twilight 5:36 AM EDT 9:32 PM EDT
Moon 10:18 PM EDT (8/24) 10:43 AM EDT (8/24)
Length of Visible Light 13h 54m
Length of Day
13h 03m
Waning Gibbous, 84% of the Moon is Illuminated
Aug 24
Waning Gibbous
Aug 28
Last Quarter
Sep 5
New
Sep 12
First Quarter
Sep 19
Full

Hourly Weather History & Observations

Time (EDT) Temp. Heat Index Dew Point Humidity Pressure Visibility Wind Dir Wind Speed Gust Speed Precip Events Conditions
12:15 AM 76.8 °F - 75.0 °F 94% 30.06 in 10.0 mi Calm Calm - N/A   Clear
12:35 AM 76.3 °F - 74.8 °F 95% 30.06 in 10.0 mi Calm Calm - N/A   Clear
12:55 AM 76.5 °F - 74.8 °F 95% 30.05 in 10.0 mi South 4.6 mph - N/A   Clear
1:15 AM 77.0 °F - 75.0 °F 94% 30.07 in 10.0 mi ENE 6.9 mph - N/A   Clear
1:35 AM 77.0 °F - 74.7 °F 92% 30.08 in 10.0 mi East 5.8 mph - N/A   Clear
1:55 AM 76.6 °F - 74.5 °F 93% 30.08 in 10.0 mi South 4.6 mph - N/A   Clear
2:15 AM 76.1 °F - 74.8 °F 96% 30.07 in 10.0 mi South 3.5 mph - N/A   Clear
2:35 AM 75.6 °F - 74.7 °F 97% 30.07 in 10.0 mi SSW 3.5 mph - N/A   Clear
2:55 AM 75.4 °F - 74.3 °F 96% 30.06 in 10.0 mi WSW 4.6 mph - N/A   Clear
3:15 AM 75.4 °F - 73.9 °F 95% 30.07 in 10.0 mi Calm Calm - N/A   Clear
3:35 AM 75.2 °F - 73.6 °F 95% 30.07 in 10.0 mi SW 3.5 mph - N/A   Clear
3:55 AM 75.0 °F - 73.6 °F 95% 30.08 in 10.0 mi Calm Calm - N/A   Clear
4:15 AM 74.3 °F - 73.8 °F 98% 30.10 in 10.0 mi Calm Calm - N/A   Clear
4:35 AM 73.9 °F - 73.6 °F 99% 30.11 in 10.0 mi Calm Calm - N/A   Mostly Cloudy
4:55 AM 74.8 °F - 74.3 °F 98% 30.11 in 10.0 mi Calm Calm - N/A   Overcast
5:15 AM 75.2 °F - 74.3 °F 97% 30.11 in 10.0 mi Calm Calm - N/A   Overcast
5:35 AM 75.2 °F - 74.5 °F 98% 30.11 in 10.0 mi Calm Calm - N/A   Overcast
5:55 AM 74.8 °F - 74.3 °F 98% 30.11 in 10.0 mi Calm Calm - N/A   Overcast
6:15 AM 74.5 °F - 73.9 °F 98% 30.11 in 10.0 mi Calm Calm - N/A   Scattered Clouds
6:35 AM 73.9 °F - 73.6 °F 99% 30.11 in 10.0 mi Calm Calm - N/A   Clear
6:55 AM 73.8 °F - 73.6 °F 99% 30.12 in 10.0 mi Calm Calm - N/A   Clear
7:15 AM 73.4 °F - 73.4 °F 100% 30.12 in 10.0 mi Calm Calm - N/A   Clear
7:35 AM 73.0 °F - 72.9 °F 99% 30.13 in 10.0 mi Calm Calm - N/A   Clear
7:55 AM 73.6 °F - 73.6 °F 100% 30.15 in 10.0 mi Calm Calm - N/A   Clear
8:15 AM 74.5 °F - 73.9 °F 98% 30.15 in 10.0 mi Calm Calm - N/A   Clear
8:35 AM 75.4 °F - 73.8 °F 95% 30.15 in 10.0 mi Calm Calm - N/A   Clear
8:55 AM 76.5 °F - 73.2 °F 90% 30.15 in 10.0 mi Calm Calm - N/A   Clear
9:15 AM 77.9 °F - 73.8 °F 87% 30.16 in 10.0 mi Calm Calm - N/A   Clear
9:35 AM 80.4 °F 85.3 °F 74.1 °F 81% 30.16 in 10.0 mi Calm Calm - N/A   Clear
9:55 AM 79.9 °F - 74.5 °F 83% 30.17 in 10.0 mi Calm Calm - N/A   Scattered Clouds
10:15 AM 81.7 °F 88.0 °F 74.8 °F 80% 30.18 in 10.0 mi Calm Calm - N/A   Mostly Cloudy
10:35 AM 83.8 °F 91.8 °F 75.0 °F 75% 30.18 in 10.0 mi East 3.5 mph - N/A   Mostly Cloudy
10:55 AM 84.6 °F 92.8 °F 75.2 °F 73% 30.18 in 10.0 mi ENE 3.5 mph - N/A   Clear
11:15 AM 86.2 °F 96.0 °F 75.7 °F 71% 30.18 in 10.0 mi NE 8.1 mph - N/A   Scattered Clouds
11:35 AM 86.5 °F 95.9 °F 75.4 °F 69% 30.19 in 10.0 mi ENE 8.1 mph - N/A   Clear
11:55 AM 86.9 °F 96.8 °F 75.6 °F 69% 30.19 in 10.0 mi East 5.8 mph - N/A   Clear
12:15 PM 88.0 °F 99.6 °F 76.5 °F 69% 30.18 in 10.0 mi ENE 3.5 mph - N/A   Scattered Clouds
12:35 PM 87.1 °F 98.3 °F 76.8 °F 71% 30.18 in 10.0 mi NE 5.8 mph - N/A   Overcast
12:55 PM 88.9 °F 101.5 °F 77.2 °F 68% 30.18 in 10.0 mi ENE 8.1 mph - N/A   Mostly Cloudy
1:15 PM 87.8 °F 100.2 °F 77.4 °F 71% 30.18 in 10.0 mi NE 9.2 mph - N/A   Mostly Cloudy
1:35 PM 87.6 °F 99.7 °F 77.2 °F 71% 30.19 in 10.0 mi NE 10.4 mph - N/A   Mostly Cloudy
1:55 PM 85.1 °F 94.9 °F 76.3 °F 75% 30.19 in 10.0 mi ENE 12.7 mph 17.3 mph N/A   Overcast
2:15 PM 84.4 °F 93.9 °F 76.5 °F 77% 30.19 in 10.0 mi NE 10.4 mph - N/A   Overcast
2:35 PM 82.9 °F 90.8 °F 75.9 °F 79% 30.19 in 10.0 mi ENE 9.2 mph - N/A   Overcast
2:55 PM 81.9 °F 88.9 °F 75.9 °F 82% 30.19 in 10.0 mi NE 8.1 mph - N/A   Overcast
3:15 PM 82.9 °F 91.5 °F 76.5 °F 81% 30.18 in 10.0 mi ENE 6.9 mph - N/A   Overcast
3:35 PM 81.7 °F 89.0 °F 76.5 °F 84% 30.18 in 10.0 mi NE 9.2 mph - N/A   Overcast
3:55 PM 80.1 °F 85.5 °F 76.1 °F 88% 30.18 in 7.0 mi NE 9.2 mph - N/A   Overcast
4:15 PM 81.3 °F 88.3 °F 76.3 °F 85% 30.17 in 7.0 mi NE 9.2 mph - N/A   Overcast
4:35 PM 82.2 °F 90.4 °F 77.0 °F 84% 30.17 in 7.0 mi NE 6.9 mph - N/A   Overcast
4:55 PM 82.0 °F 89.7 °F 76.5 °F 83% 30.17 in 7.0 mi ENE 11.5 mph 16.1 mph N/A   Overcast
5:15 PM 81.5 °F 88.3 °F 75.7 °F 83% 30.17 in 10.0 mi ENE 12.7 mph 16.1 mph N/A   Overcast
5:35 PM 81.7 °F 88.7 °F 76.1 °F 83% 30.17 in 10.0 mi ENE 13.8 mph 19.6 mph N/A   Overcast
5:55 PM 80.1 °F 85.2 °F 75.6 °F 86% 30.17 in 10.0 mi NE 9.2 mph - N/A   Overcast
6:15 PM 79.2 °F - 75.6 °F 89% 30.17 in 7.0 mi ENE 9.2 mph - N/A   Overcast
6:35 PM 79.2 °F - 75.0 °F 87% 30.17 in 10.0 mi ENE 12.7 mph - N/A   Overcast
6:55 PM 79.0 °F - 75.0 °F 88% 30.17 in 10.0 mi ENE 6.9 mph - N/A   Overcast
7:15 PM 79.0 °F - 75.2 °F 88% 30.18 in 10.0 mi NE 8.1 mph - N/A   Overcast
7:35 PM 78.8 °F - 74.8 °F 88% 30.18 in 10.0 mi NE 6.9 mph - N/A   Overcast
7:55 PM 77.9 °F - 74.5 °F 89% 30.18 in 7.0 mi NE 10.4 mph - N/A   Overcast
8:15 PM 77.9 °F - 74.3 °F 89% 30.19 in 10.0 mi ENE 10.4 mph - N/A   Overcast
8:35 PM 77.9 °F - 73.8 °F 87% 30.20 in 10.0 mi East 5.8 mph - N/A   Overcast
8:55 PM 77.9 °F - 73.6 °F 86% 30.21 in 10.0 mi East 4.6 mph - N/A   Overcast
9:15 PM 77.5 °F - 73.6 °F 88% 30.22 in 10.0 mi East 4.6 mph - N/A   Overcast
9:35 PM 77.4 °F - 73.6 °F 88% 30.22 in 10.0 mi ENE 4.6 mph - N/A   Overcast
9:55 PM 77.2 °F - 73.6 °F 89% 30.22 in 10.0 mi ENE 3.5 mph - N/A   Overcast
10:15 PM 77.2 °F - 73.8 °F 89% 30.23 in 10.0 mi Calm Calm - N/A   Overcast
10:35 PM 77.2 °F - 73.6 °F 89% 30.23 in 10.0 mi ENE 3.5 mph - N/A   Overcast
10:55 PM 77.0 °F - 73.9 °F 90% 30.23 in 10.0 mi Calm Calm - N/A   Overcast
11:15 PM 77.0 °F - 73.9 °F 90% 30.23 in 10.0 mi ENE 3.5 mph - N/A   Overcast
11:35 PM 77.2 °F - 73.8 °F 89% 30.24 in 10.0 mi Calm Calm - N/A   Overcast
11:55 PM 77.0 °F - 73.9 °F 90% 30.24 in 10.0 mi Calm Calm - N/A   Overcast